Flag for Germany Weather past 2 weeks in Oer-Erkenschwick, North Rhine-Westphalia, Germany

Now
48 °F

Clear.


Feels Like: 47 °F
Forecast: 49 / 59 °F
Wind: 3 mph from Southwest

Location: Dortmund / Wickede

Current Time: May 24, 2015 at 11:48:29 PM

Latest Report: May 24, 2015 at 10:50 PM


Visibility: 10 mi

Pressure: 30.04 "Hg

Humidity: 76%

Dew point: 41 °F

Location of Oer-ErkenschwickLocation

Historic Weather in Oer-Erkenschwick — Graph

°F

Oer-Erkenschwick temperature yesterday

Maximum temperature yesterday: 68 °F (at 12:50 PM)
Minimum temperature yesterday: 52 °F (at 10:20 PM)
Average temperature yesterday: 58 °F

Past Weeks' High & Low Weather Summary

 TemperatureHumidityPressure
High77 °F (May 11, 3:50 PM)93% (May 16, 6:20 AM)30.33 "Hg (May 16, 6:20 AM)
Low39 °F (May 14, 5:20 AM)29% (May 11, 2:50 PM)29.62 "Hg (May 18, 7:20 PM)
Average57 °F57%30.07 "Hg
* Reported May 9 10:20 PM — May 24 10:20 PM, Oer-Erkenschwick, Weather by CustomWeather, © 2015

Note: Actual official high and low records may vary slightly from our data, if they occured in-between our weather recording intervals... More about our weather records

Advertising

Oer-Erkenschwick weather history for previous 24 hours

 ConditionsComfort  
Time TempWeatherWind HumidityBarometerVisibility
10:20 PM
Sun, May 24
54 °FSunny.3 mph63%30.04 "Hg10 mi
9:50 PM54 °FSunny.3 mph67%30.04 "Hg10 mi
9:20 PM55 °FSunny.5 mph59%30.01 "Hg10 mi
8:50 PM63 °FSunny.7 mph42%30.01 "Hg10 mi
8:20 PM63 °FSunny.7 mph42%30.01 "Hg10 mi
7:50 PM64 °FPassing clouds.6 mph43%30.01 "HgN/A
7:20 PM66 °FPassing clouds.5 mph37%30.01 "HgN/A
6:50 PM66 °FSunny.7 mph32%30.04 "Hg10 mi
6:20 PM66 °FPassing clouds.7 mph37%30.04 "HgN/A
5:50 PM66 °FPassing clouds.6 mph43%30.04 "HgN/A
5:20 PM66 °FPassing clouds.7 mph40%30.04 "HgN/A
4:50 PM66 °FPassing clouds.8 mph40%30.04 "HgN/A
4:20 PM66 °FPassing clouds.8 mph43%30.07 "HgN/A
3:50 PM66 °FScattered clouds.10 mph46%30.07 "HgN/A
3:20 PM64 °FScattered clouds.6 mph52%30.07 "HgN/A
2:50 PM64 °FPartly sunny.7 mph52%30.07 "HgN/A
2:20 PM63 °FPartly sunny.6 mph49%30.09 "HgN/A
1:50 PM63 °FPartly sunny.2 mph49%30.09 "HgN/A
1:20 PM61 °FPartly sunny.6 mph52%30.09 "HgN/A
12:50 PM61 °FPartly sunny.3 mph55%30.09 "HgN/A
12:20 PM59 °FPartly sunny.3 mph55%30.09 "HgN/A
11:50 AM59 °FPartly sunny.5 mph55%30.12 "HgN/A
11:20 AM59 °FOvercast.3 mph59%30.12 "HgN/A
10:50 AM57 °FOvercast.3 mph59%30.12 "HgN/A
10:20 AM55 °FOvercast.5 mph67%30.12 "HgN/A
9:50 AM54 °FOvercast.3 mph67%30.12 "HgN/A
9:20 AM52 °FOvercast.3 mph67%30.12 "HgN/A
8:50 AM50 °FOvercast.3 mph71%30.12 "HgN/A
8:20 AM50 °FOvercast.3 mph71%30.12 "HgN/A
7:50 AM48 °FOvercast.3 mph76%30.12 "HgN/A
7:20 AM48 °FOvercast.3 mph71%30.12 "HgN/A
6:50 AM46 °FOvercast.3 mph76%30.12 "HgN/A
6:20 AM46 °FOvercast.3 mph76%30.12 "HgN/A
5:50 AM46 °FOvercast.5 mph76%30.12 "HgN/A
5:20 AM45 °FOvercast.5 mph81%30.15 "HgN/A
Weather by CustomWeather, © 2015

See weather overviewHow to use our weather pages